Weather History for Koksijde, Belgium

Change the Weather History Date:

Friday, December 28, 2012

  Actual Average Record
Temperature  
Mean Temperature 46 °F -  
Max Temperature 51 °F 42 °F 51 °F (2012)
Min Temperature 41 °F 35 °F 17 °F (1996)
Degree Days  
Heating Degree Days 19    
Moisture  
Dew Point 44 °F    
Average Humidity 91    
Maximum Humidity 100    
Minimum Humidity 69    
Precipitation  
Precipitation 0.12 in - - ()
Sea Level Pressure  
Sea Level Pressure 30.12 in    
Wind  
Wind Speed 12 mph ()    
Max Wind Speed 17 mph    
Max Gust Speed -    
Visibility 5.4 miles    
Events Rain    
Averages and records for this station are not official NWS values.
T = Trace of Precipitation, MM = Missing Value Source: Averaged Metar Reports

Daily Weather History Graph

Daily Weather History Graph

Search for Another Location

Airport:

Trip Planner

Search our weather history database for the weather conditions in past years. The results will help you decide how hot, cold, wet, or windy it might be!

Date:

Astronomy

Dec. 28, 2012 Rise Set
Actual Time 8:52 AM CET 4:49 PM CET
Civil Twilight 8:13 AM CET 5:29 PM CET
Nautical Twilight 7:30 AM CET 6:11 PM CET
Astronomical Twilight 6:50 AM CET 6:52 PM CET
Moon 5:18 PM CET (12/28) 8:31 AM CET (12/28)
Length of Visible Light 9h 15m
Length of Day
7h 56m
Full, 100% of the Moon is Illuminated
Dec 28
Full
Jan 5
Last Quarter
Jan 11
New
Jan 19
First Quarter
Jan 27
Full

Hourly Weather History & Observations

Time (CET) Temp. Windchill Dew Point Humidity Pressure Visibility Wind Dir Wind Speed Gust Speed Precip Events Conditions
12:25 AM 46.4 °F 39.5 °F 39.2 °F 76% 30.09 in 6.2 mi West 17.3 mph - N/A   Mostly Cloudy
12:55 AM 46.4 °F 40.1 °F 39.2 °F 76% 30.09 in 6.2 mi WNW 15.0 mph - N/A   Mostly Cloudy
1:00 AM 46 °F - 39 °F 69% 30.11 in 25 mi WNW 15.7 mph - -   Partly Cloudy
1:25 AM 46.4 °F 39.8 °F 39.2 °F 76% 30.12 in 6.2 mi WNW 16.1 mph - N/A   Mostly Cloudy
1:55 AM 46.4 °F 39.8 °F 41.0 °F 81% 30.12 in 6.2 mi WNW 16.1 mph - N/A   Mostly Cloudy
2:55 AM 44.6 °F 38.8 °F 39.2 °F 81% 30.15 in 6.2 mi West 11.5 mph - N/A   Mostly Cloudy
3:25 AM 44.6 °F 38.4 °F 39.2 °F 81% 30.15 in 6.2 mi West 12.7 mph - N/A   Mostly Cloudy
3:55 AM 44.6 °F 39.2 °F 39.2 °F 81% 30.18 in 6.2 mi WSW 10.4 mph - N/A   Mostly Cloudy
4:00 AM 45 °F - 39 °F 72% 30.19 in 28 mi WSW 11.2 mph - -   Mostly Cloudy
4:25 AM 44.6 °F 39.7 °F 39.2 °F 81% 30.18 in 6.2 mi WSW 9.2 mph - N/A   Mostly Cloudy
4:28 AM 44.6 °F 39.7 °F 39.2 °F 81% 30.18 in 6.2 mi WSW 9.2 mph - N/A   Mostly Cloudy
4:55 AM 44.6 °F 39.7 °F 37.4 °F 76% 30.18 in 6.2 mi West 9.2 mph - N/A   Mostly Cloudy
5:25 AM 42.8 °F 38.0 °F 37.4 °F 81% 30.18 in 6.2 mi WSW 8.1 mph - N/A   Mostly Cloudy
5:55 AM 41.0 °F 37.1 °F 39.2 °F 93% 30.18 in 6.2 mi South 5.8 mph - N/A   Mostly Cloudy
6:25 AM 41.0 °F 37.1 °F 39.2 °F 93% 30.18 in 6.2 mi South 5.8 mph - N/A   Mostly Cloudy
6:55 AM 42.8 °F 38.6 °F 39.2 °F 87% 30.18 in 6.2 mi South 6.9 mph - N/A   Mostly Cloudy
7:00 AM 42 °F - 39 °F 86% 30.21 in 14 mi South 6.7 mph - -   Partly Cloudy
7:25 AM 42.8 °F 39.3 °F 39.2 °F 87% 30.18 in 6.2 mi South 5.8 mph - N/A   Mostly Cloudy
7:28 AM 42.8 °F 39.3 °F 39.2 °F 87% 30.18 in 6.2 mi South 5.8 mph - N/A   Mostly Cloudy
7:55 AM 42.8 °F 38.6 °F 39.2 °F 87% 30.18 in 6.2 mi South 6.9 mph - N/A   Mostly Cloudy
8:25 AM 42.8 °F 38.0 °F 39.2 °F 87% 30.18 in 6.2 mi South 8.1 mph - N/A   Mostly Cloudy
8:55 AM 42.8 °F 38.0 °F 39.2 °F 87% 30.18 in 6.2 mi South 8.1 mph - N/A   Mostly Cloudy
9:25 AM 44.6 °F 39.2 °F 41.0 °F 87% 30.18 in 6.2 mi South 10.4 mph - N/A   Mostly Cloudy
9:55 AM 44.6 °F 39.2 °F 41.0 °F 87% 30.18 in 6.2 mi South 10.4 mph - N/A   Mostly Cloudy
10:00 AM 44 °F - 41 °F 83% 30.19 in 9 mi SSE 11.2 mph - -   Mostly Cloudy
10:25 AM 44.6 °F 38.8 °F 41.0 °F 87% 30.18 in 6.2 mi South 11.5 mph - N/A   Mostly Cloudy
10:50 AM 44.6 °F 38.8 °F 41.0 °F 87% 30.18 in 6.2 mi South 11.5 mph - N/A Rain Light Rain
10:55 AM 44.6 °F 38.8 °F 42.8 °F 93% 30.18 in 6.2 mi South 11.5 mph - N/A Rain Light Rain
11:25 AM 44.6 °F 38.4 °F 42.8 °F 93% 30.18 in 4.3 mi South 12.7 mph - N/A Rain Light Rain
11:45 AM 44.6 °F 37.8 °F 44.6 °F 100% 30.15 in 4.3 mi South 15.0 mph - N/A Rain Light Rain
11:55 AM 44.6 °F 38.1 °F 44.6 °F 100% 30.15 in 5.0 mi South 13.8 mph - N/A Rain Light Rain
12:25 PM 44.6 °F 38.1 °F 44.6 °F 100% 30.15 in 3.1 mi South 13.8 mph - N/A Rain Light Rain
12:32 PM 44.6 °F 38.1 °F 44.6 °F 100% 30.15 in 2.5 mi South 13.8 mph - N/A Rain Rain
12:55 PM 46.4 °F 40.1 °F 44.6 °F 93% 30.12 in 2.2 mi South 15.0 mph - N/A Rain Rain
1:00 PM 46 °F - 45 °F 95% 30.15 in 2 mi South 15.7 mph - - Rain Rain
1:25 PM 46.4 °F 40.1 °F 44.6 °F 93% 30.12 in 1.6 mi South 15.0 mph - N/A Rain Light Rain
1:55 PM 46.4 °F 39.8 °F 46.4 °F 100% 30.09 in 1.4 mi South 16.1 mph - N/A   Light Drizzle
2:25 PM 48.2 °F - 46.4 °F 93% 30.09 in 2.2 mi South 17.3 mph - N/A   Light Drizzle
2:55 PM 48.2 °F - 48.2 °F 100% 30.09 in 2.8 mi South 13.8 mph - N/A   Light Drizzle
3:25 PM 48.2 °F - 48.2 °F 100% 30.09 in - South 16.1 mph - N/A   Light Drizzle
3:55 PM 48.2 °F - 48.2 °F 100% 30.09 in 1.2 mi South 13.8 mph - N/A   Light Drizzle
4:00 PM 49 °F - 49 °F 99% 30.10 in 1 mi SSW 13.4 mph - - Rain Light Drizzle
4:25 PM 50.0 °F - 48.2 °F 94% 30.09 in 1.4 mi South 15.0 mph - N/A   Light Drizzle
4:55 PM 50.0 °F - 50.0 °F 100% 30.09 in 1.7 mi South 13.8 mph - N/A   Light Drizzle
5:15 PM 50.0 °F - 50.0 °F 100% 30.09 in 3.7 mi South 13.8 mph - N/A   Mostly Cloudy
5:25 PM 50.0 °F - 50.0 °F 100% 30.09 in 5.0 mi South 13.8 mph - N/A   Mostly Cloudy
5:35 PM 50.0 °F - 50.0 °F 100% 30.09 in 5.6 mi South 13.8 mph - N/A   Mostly Cloudy
5:55 PM 50.0 °F - 50.0 °F 100% 30.09 in 5.6 mi South 11.5 mph - N/A   Mostly Cloudy
6:25 PM 50.0 °F - 50.0 °F 100% 30.09 in 6.2 mi South 11.5 mph - N/A   Mostly Cloudy
6:35 PM 50.0 °F - 50.0 °F 100% 30.09 in 4.3 mi South 11.5 mph - N/A Rain Light Rain
6:55 PM 50.0 °F - 50.0 °F 100% 30.06 in 6.2 mi South 10.4 mph - N/A   Mostly Cloudy
7:00 PM 50 °F - 49 °F 97% 30.09 in 6 mi South 8.9 mph - - Rain Light Rain
7:25 PM 50.0 °F - 50.0 °F 100% 30.06 in 6.2 mi South 11.5 mph - N/A   Mostly Cloudy
7:55 PM 50.0 °F - 50.0 °F 100% 30.06 in 6.2 mi South 12.7 mph - N/A   Mostly Cloudy
8:25 PM 51.8 °F - 50.0 °F 94% 30.06 in 6.2 mi South 12.7 mph - N/A   Mostly Cloudy
8:55 PM 50.0 °F - 50.0 °F 100% 30.06 in 6.2 mi South 11.5 mph - N/A   Mostly Cloudy
9:25 PM 51.8 °F - 50.0 °F 94% 30.06 in 6.2 mi South 12.7 mph - N/A   Mostly Cloudy
9:55 PM 51.8 °F - 50.0 °F 94% 30.06 in 6.2 mi South 12.7 mph - N/A   Mostly Cloudy
10:00 PM 51 °F - 49 °F 92% 30.08 in 9 mi South 13.4 mph - -   Partly Cloudy
10:25 PM 51.8 °F - 50.0 °F 94% 30.06 in 6.2 mi South 13.8 mph - N/A   Mostly Cloudy
10:55 PM 51.8 °F - 50.0 °F 94% 30.04 in 6.2 mi SSW 16.1 mph - N/A   Mostly Cloudy
11:25 PM 51.8 °F - 50.0 °F 94% 30.04 in 6.2 mi SSW 13.8 mph - N/A   Mostly Cloudy
11:55 PM 51.8 °F - 50.0 °F 94% 30.04 in 6.2 mi South 15.0 mph - N/A   Mostly Cloudy